| time (UTC) | temp F | wind direction | speed MPH | gust MPH | rain 1hr in | rain 24hr in | rain mn in | humidity % | barometer mb |
| 20260901105026 | 82 | 105 | 4.0 | 10.0 | 0.00 | 0.00 | 0.00 | 72 | 1018.7 |
| 20260901104101 | 82 | 131 | 5.0 | 13.0 | 0.00 | 0.00 | 0.00 | 71 | 1018.2 |
| 20260901103017 | 82 | 132 | 6.0 | 14.0 | 0.00 | 0.00 | 0.00 | 70 | 1018.5 |
| 20260901102032 | 81 | 117 | 5.0 | 10.0 | 0.00 | 0.00 | 0.00 | 73 | 1018.8 |
| 20260901101047 | 82 | 122 | 5.0 | 10.0 | 0.00 | 0.00 | 0.00 | 73 | 1018.8 |
| 20260901100043 | 81 | 119 | 4.0 | 9.0 | 0.00 | 0.00 | 0.00 | 73 | 1018.8 |
| 20260901095018 | 81 | 136 | 4.0 | 8.0 | 0.00 | 0.00 | 0.00 | 74 | 1018.9 |
| 20260901094034 | 80 | 143 | 4.0 | 9.0 | 0.00 | 0.00 | 0.00 | 74 | 1018.8 |
| 20260901093049 | 80 | 126 | 5.0 | 10.0 | 0.00 | 0.00 | 0.00 | 74 | 1019.0 |
| 20260901092045 | 80 | 108 | 5.0 | 10.0 | 0.00 | 0.00 | 0.00 | 75 | 1018.7 |
| 20260901091020 | 80 | 95 | 4.0 | 9.0 | 0.00 | 0.00 | 0.00 | 77 | 1018.6 |
| 20260901090035 | 80 | 96 | 4.0 | 9.0 | 0.00 | 0.00 | 0.00 | 76 | 1018.7 |
| 20260901085030 | 80 | 135 | 3.0 | 7.0 | 0.00 | 0.00 | 0.00 | 76 | 1018.9 |
| 20260901084026 | 80 | 93 | 5.0 | 9.0 | 0.00 | 0.00 | 0.00 | 76 | 1018.4 |
| 20260901083021 | 80 | 93 | 3.0 | 9.0 | 0.00 | 0.00 | 0.00 | 77 | 1018.5 |
| 20260901082036 | 80 | 98 | 4.0 | 9.0 | 0.00 | 0.00 | 0.00 | 76 | 1018.3 |
| 20260901081032 | 79 | 87 | 2.0 | 8.0 | 0.00 | 0.00 | 0.00 | 77 | 1018.2 |
| 20260901080026 | 79 | 87 | 3.0 | 7.0 | 0.00 | 0.00 | 0.00 | 76 | 1018.2 |
| 20260901075022 | 79 | 92 | 3.0 | 6.0 | 0.00 | 0.00 | 0.00 | 75 | 1018.2 |
| 20260901074017 | 79 | 89 | 3.0 | 9.0 | 0.00 | 0.00 | 0.00 | 75 | 1018.2 |
| 20260901073033 | 78 | 74 | 2.0 | 4.0 | 0.00 | 0.00 | 0.00 | 75 | 1018.0 |
| 20260901072028 | 78 | 69 | 0.0 | 3.0 | 0.00 | 0.00 | 0.00 | 76 | 1017.9 |
| 20260901071023 | 78 | 42 | 0.0 | 2.0 | 0.00 | 0.00 | 0.00 | 77 | 1017.7 |
| 20260901070058 | 77 | 0.0 | 0.0 | 0.00 | 0.00 | 0.00 | 77 | 1017.8 | |
| 20260901065034 | 77 | 32 | 0.0 | 1.0 | 0.00 | 0.00 | 0.00 | 78 | 1017.7 |
| 20260901064029 | 77 | 30 | 1.0 | 3.0 | 0.00 | 0.00 | 0.00 | 78 | 1017.3 |
| 20260901063025 | 77 | 40 | 1.0 | 2.0 | 0.00 | 0.00 | 0.00 | 79 | 1017.2 |
| 20260901062020 | 76 | 345 | 1.0 | 2.0 | 0.00 | 0.00 | 0.00 | 80 | 1017.4 |
| 20260901061015 | 76 | 7 | 2.0 | 3.0 | 0.00 | 0.00 | 0.00 | 80 | 1017.2 |
| 20260901060031 | 76 | 341 | 1.0 | 3.0 | 0.00 | 0.00 | 0.00 | 81 | 1017.2 |
| 20260901055026 | 75 | 3 | 1.0 | 3.0 | 0.00 | 0.00 | 0.00 | 81 | 1016.9 |
| 20260901054022 | 75 | 29 | 1.0 | 3.0 | 0.00 | 0.00 | 0.00 | 81 | 1016.6 |
| 20260901053017 | 75 | 1 | 2.0 | 3.0 | 0.00 | 0.00 | 0.00 | 81 | 1016.9 |
| 20260901052032 | 76 | 16 | 3.0 | 6.0 | 0.00 | 0.00 | 0.00 | 81 | 1016.8 |
| 20260901051028 | 76 | 345 | 1.0 | 3.0 | 0.00 | 0.00 | 0.00 | 81 | 1016.9 |
| 20260901050023 | 76 | 18 | 2.0 | 3.0 | 0.00 | 0.00 | 0.00 | 81 | 1016.6 |
| 20260901045018 | 76 | 4 | 2.0 | 4.0 | 0.00 | 0.00 | 0.00 | 80 | 1016.9 |
| 20260901044034 | 76 | 23 | 1.0 | 2.0 | 0.00 | 0.00 | 0.00 | 80 | 1016.8 |
| 20260901043028 | 76 | 2 | 1.0 | 2.0 | 0.00 | 0.00 | 0.00 | 81 | 1017.1 |
| 20260901042023 | 76 | 346 | 1.0 | 3.0 | 0.00 | 0.00 | 0.00 | 82 | 1017.3 |
| 20260901041039 | 75 | 328 | 2.0 | 4.0 | 0.00 | 0.00 | 0.00 | 82 | 1016.9 |
| 20260901040035 | 75 | 347 | 1.0 | 3.0 | 0.00 | 0.00 | 0.00 | 83 | 1016.8 |
| 20260901035030 | 75 | 346 | 2.0 | 3.0 | 0.00 | 0.00 | 0.00 | 83 | 1017.0 |
| 20260901034045 | 75 | 12 | 1.0 | 1.0 | 0.00 | 0.00 | 0.00 | 83 | 1017.0 |
| 20260901033021 | 75 | 7 | 1.0 | 2.0 | 0.00 | 0.00 | 0.00 | 83 | 1017.1 |
| 20260901032016 | 75 | 10 | 2.0 | 3.0 | 0.00 | 0.00 | 0.00 | 83 | 1017.1 |
| 20260901031031 | 75 | 5 | 2.0 | 3.0 | 0.00 | 0.00 | 0.00 | 83 | 1017.2 |
| 20260901030026 | 75 | 358 | 2.0 | 3.0 | 0.00 | 0.00 | 0.00 | 84 | 1017.1 |
| 20260901025022 | 75 | 13 | 1.0 | 2.0 | 0.00 | 0.00 | 0.00 | 84 | 1017.0 |
| 20260901024017 | 75 | 6 | 2.0 | 3.0 | 0.00 | 0.00 | 0.00 | 84 | 1017.3 |
| 20260901023033 | 75 | 354 | 2.0 | 3.0 | 0.00 | 0.00 | 0.00 | 85 | 1017.2 |
| 20260901022028 | 75 | 4 | 2.0 | 2.0 | 0.00 | 0.00 | 0.00 | 85 | 1017.5 |
| 20260901021023 | 76 | 11 | 2.0 | 3.0 | 0.00 | 0.00 | 0.00 | 85 | 1017.4 |
| 20260901020019 | 76 | 12 | 1.0 | 3.0 | 0.00 | 0.00 | 0.00 | 84 | 1017.5 |
| 20260901015055 | 76 | 22 | 1.0 | 4.0 | 0.00 | 0.00 | 0.00 | 84 | 1017.6 |
| 20260901014030 | 76 | 13 | 2.0 | 4.0 | 0.00 | 0.00 | 0.00 | 84 | 1017.5 |
| 20260901013045 | 76 | 10 | 1.0 | 2.0 | 0.00 | 0.00 | 0.00 | 84 | 1017.6 |
| 20260901012021 | 76 | 14 | 1.0 | 2.0 | 0.00 | 0.00 | 0.00 | 84 | 1017.8 |
| 20260901011016 | 76 | 0 | 1.0 | 2.0 | 0.00 | 0.00 | 0.00 | 83 | 1017.9 |
| 20260901010032 | 76 | 359 | 1.0 | 2.0 | 0.00 | 0.00 | 0.00 | 84 | 1017.9 |
| 20260901005107 | 76 | 7 | 1.0 | 2.0 | 0.00 | 0.00 | 0.00 | 84 | 1018.0 |
| 20260901004023 | 76 | 3 | 2.0 | 4.0 | 0.00 | 0.00 | 0.00 | 83 | 1018.0 |
| 20260901003018 | 77 | 2 | 1.0 | 2.0 | 0.00 | 0.00 | 0.00 | 83 | 1018.1 |
| 20260901002033 | 77 | 8 | 1.0 | 2.0 | 0.00 | 0.00 | 0.00 | 83 | 1018.2 |
| 20260901001029 | 77 | 351 | 1.0 | 2.0 | 0.00 | 0.00 | 0.00 | 83 | 1018.2 |
| 20260901000024 | 77 | 336 | 0.0 | 1.0 | 0.00 | 0.00 | 0.00 | 83 | 1018.1 |
| 20260831235019 | 77 | 39 | 0.0 | 2.0 | 0.00 | 0.00 | 0.00 | 83 | 1018.3 |
| 20260831234035 | 77 | 25 | 3.0 | 6.0 | 0.00 | 0.00 | 0.00 | 82 | 1018.3 |
| 20260831233029 | 77 | 25 | 3.0 | 6.0 | 0.00 | 0.00 | 0.00 | 82 | 1018.4 |
| 20260831232025 | 77 | 36 | 3.0 | 6.0 | 0.00 | 0.00 | 0.00 | 82 | 1018.2 |
| 20260831231020 | 77 | 29 | 0.0 | 1.0 | 0.00 | 0.00 | 0.00 | 83 | 1018.2 |
| 20260831230016 | 77 | 127 | 0.0 | 1.0 | 0.00 | 0.00 | 0.00 | 83 | 1018.2 |
| 20260831225031 | 77 | 18 | 1.0 | 4.0 | 0.00 | 0.00 | 0.00 | 83 | 1018.2 |
| 20260831224047 | 77 | 9 | 2.0 | 6.0 | 0.00 | 0.00 | 0.00 | 84 | 1018.1 |
| 20260831223022 | 77 | 20 | 3.0 | 6.0 | 0.00 | 0.00 | 0.00 | 84 | 1018.1 |
| 20260831222017 | 77 | 19 | 3.0 | 6.0 | 0.00 | 0.00 | 0.00 | 84 | 1018.0 |
| 20260831221052 | 77 | 22 | 3.0 | 4.0 | 0.00 | 0.00 | 0.00 | 84 | 1018.0 |
| 20260831220028 | 77 | 25 | 1.0 | 2.0 | 0.00 | 0.00 | 0.00 | 83 | 1018.0 |
| 20260831215023 | 77 | 23 | 1.0 | 3.0 | 0.00 | 0.00 | 0.00 | 83 | 1017.8 |
| 20260831214038 | 77 | 29 | 1.0 | 3.0 | 0.00 | 0.00 | 0.00 | 83 | 1017.8 |
| 20260831213034 | 77 | 30 | 1.0 | 3.0 | 0.00 | 0.00 | 0.00 | 83 | 1017.8 |
| 20260831212028 | 77 | 24 | 2.0 | 4.0 | 0.00 | 0.00 | 0.00 | 83 | 1017.8 |
| 20260831211024 | 77 | 48 | 0.0 | 2.0 | 0.00 | 0.00 | 0.00 | 84 | 1017.7 |
| 20260831210019 | 77 | 49 | 2.0 | 4.0 | 0.00 | 0.00 | 0.00 | 84 | 1017.5 |
| 20260831205055 | 77 | 54 | 1.0 | 2.0 | 0.00 | 0.00 | 0.00 | 84 | 1017.5 |
| 20260831204030 | 77 | 55 | 1.0 | 3.0 | 0.00 | 0.00 | 0.00 | 84 | 1017.4 |
| 20260831203045 | 77 | 54 | 1.0 | 4.0 | 0.00 | 0.00 | 0.00 | 84 | 1017.4 |
| 20260831202020 | 77 | 65 | 1.0 | 3.0 | 0.00 | 0.00 | 0.00 | 84 | 1017.2 |
| 20260831201016 | 76 | 69 | 0.0 | 2.0 | 0.00 | 0.00 | 0.00 | 84 | 1017.1 |
| 20260831200032 | 76 | 85 | 1.0 | 3.0 | 0.00 | 0.00 | 0.00 | 84 | 1017.0 |
| 20260831195026 | 76 | 78 | 1.0 | 3.0 | 0.00 | 0.00 | 0.00 | 84 | 1016.8 |
| 20260831194022 | 76 | 55 | 1.0 | 3.0 | 0.00 | 0.00 | 0.00 | 85 | 1016.6 |
| 20260831193017 | 76 | 65 | 1.0 | 3.0 | 0.00 | 0.00 | 0.00 | 84 | 1016.3 |
| 20260831192033 | 77 | 67 | 1.0 | 4.0 | 0.00 | 0.00 | 0.00 | 84 | 1016.3 |
| 20260831191028 | 77 | 66 | 0.0 | 4.0 | 0.00 | 0.00 | 0.00 | 83 | 1016.1 |
| 20260831190023 | 77 | 63 | 1.0 | 4.0 | 0.00 | 0.00 | 0.00 | 81 | 1016.1 |
| 20260831185038 | 77 | 68 | 2.0 | 7.0 | 0.00 | 0.00 | 0.00 | 81 | 1016.0 |
| 20260831184034 | 78 | 88 | 2.0 | 8.0 | 0.00 | 0.00 | 0.00 | 80 | 1015.9 |
| 20260831183029 | 78 | 82 | 2.0 | 6.0 | 0.00 | 0.00 | 0.00 | 79 | 1015.8 |
| 20260831182024 | 78 | 76 | 3.0 | 8.0 | 0.00 | 0.00 | 0.00 | 78 | 1015.9 |
| 20260831181019 | 78 | 92 | 3.0 | 8.0 | 0.00 | 0.00 | 0.00 | 78 | 1015.7 |
| 20260831180035 | 78 | 74 | 2.0 | 7.0 | 0.00 | 0.00 | 0.00 | 78 | 1015.7 |
| 20260831175030 | 79 | 65 | 1.0 | 3.0 | 0.00 | 0.00 | 0.00 | 77 | 1015.6 |
| 20260831174025 | 79 | 71 | 2.0 | 7.0 | 0.00 | 0.00 | 0.00 | 75 | 1015.6 |
| 20260831173021 | 79 | 72 | 3.0 | 8.0 | 0.00 | 0.00 | 0.00 | 76 | 1015.6 |
| 20260831172016 | 79 | 65 | 2.0 | 9.0 | 0.00 | 0.00 | 0.00 | 76 | 1015.7 |
| 20260831171031 | 79 | 67 | 2.0 | 7.0 | 0.00 | 0.00 | 0.00 | 76 | 1015.5 |
| 20260831170027 | 79 | 78 | 4.0 | 8.0 | 0.00 | 0.00 | 0.00 | 77 | 1015.5 |
| 20260831165022 | 79 | 98 | 5.0 | 11.0 | 0.00 | 0.00 | 0.00 | 77 | 1015.5 |
| 20260831164018 | 79 | 112 | 6.0 | 11.0 | 0.00 | 0.00 | 0.00 | 77 | 1015.8 |
| 20260831163033 | 80 | 122 | 6.0 | 11.0 | 0.00 | 0.00 | 0.00 | 77 | 1015.8 |
| 20260831162049 | 79 | 117 | 8.0 | 13.0 | 0.00 | 0.00 | 0.00 | 77 | 1016.0 |
| 20260831161024 | 80 | 118 | 7.0 | 14.0 | 0.00 | 0.00 | 0.00 | 77 | 1015.8 |
| 20260831160020 | 80 | 89 | 4.0 | 13.0 | 0.00 | 0.00 | 0.00 | 77 | 1015.8 |
| 20260831155035 | 80 | 107 | 8.0 | 15.0 | 0.00 | 0.00 | 0.00 | 77 | 1016.0 |
| 20260831154031 | 80 | 109 | 9.0 | 15.0 | 0.00 | 0.00 | 0.00 | 77 | 1016.0 |
| 20260831153025 | 80 | 104 | 7.0 | 13.0 | 0.00 | 0.00 | 0.00 | 75 | 1016.1 |
| 20260831152021 | 80 | 106 | 8.0 | 15.0 | 0.00 | 0.00 | 0.00 | 76 | 1016.2 |
| 20260831151016 | 80 | 89 | 7.0 | 15.0 | 0.00 | 0.00 | 0.00 | 77 | 1016.2 |
| 20260831150031 | 81 | 110 | 11.0 | 18.0 | 0.00 | 0.00 | 0.00 | 76 | 1016.0 |
| 20260831145047 | 80 | 98 | 12.0 | 19.0 | 0.00 | 0.00 | 0.00 | 77 | 1016.2 |
| 20260831144022 | 80 | 95 | 9.0 | 19.0 | 0.00 | 0.00 | 0.00 | 78 | 1016.2 |
| 20260831143017 | 81 | 90 | 7.0 | 18.0 | 0.00 | 0.00 | 0.00 | 76 | 1016.3 |
| 20260831142032 | 81 | 84 | 9.0 | 19.0 | 0.00 | 0.00 | 0.00 | 76 | 1016.2 |
| 20260831141028 | 81 | 86 | 12.0 | 19.0 | 0.00 | 0.00 | 0.00 | 75 | 1016.1 |
| 20260831140023 | 81 | 89 | 7.0 | 17.0 | 0.00 | 0.00 | 0.00 | 74 | 1016.3 |
| 20260831135018 | 82 | 80 | 8.0 | 22.0 | 0.00 | 0.00 | 0.00 | 73 | 1016.3 |
| 20260831134034 | 82 | 69 | 7.0 | 16.0 | 0.00 | 0.00 | 0.00 | 74 | 1016.4 |
| 20260831133050 | 82 | 73 | 8.0 | 18.0 | 0.00 | 0.00 | 0.00 | 71 | 1016.2 |
| 20260831132025 | 82 | 75 | 7.0 | 17.0 | 0.00 | 0.00 | 0.00 | 72 | 1016.3 |
| 20260831131020 | 83 | 66 | 8.0 | 22.0 | 0.00 | 0.00 | 0.00 | 70 | 1016.3 |
| 20260831130035 | 83 | 67 | 8.0 | 21.0 | 0.00 | 0.00 | 0.00 | 70 | 1016.2 |
| 20260831125031 | 82 | 74 | 8.0 | 19.0 | 0.00 | 0.00 | 0.00 | 70 | 1016.5 |
| 20260831124026 | 83 | 64 | 8.0 | 21.0 | 0.00 | 0.00 | 0.00 | 67 | 1016.6 |
| 20260831123023 | 83 | 71 | 7.0 | 19.0 | 0.00 | 0.00 | 0.00 | 67 | 1016.6 |
| 20260831122037 | 83 | 88 | 7.0 | 19.0 | 0.00 | 0.00 | 0.00 | 66 | 1016.6 |
| 20260831121032 | 84 | 73 | 5.0 | 13.0 | 0.00 | 0.00 | 0.00 | 69 | 1016.7 |
| 20260831120028 | 83 | 70 | 6.0 | 14.0 | 0.00 | 0.00 | 0.00 | 69 | 1016.8 |
| 20260831115043 | 83 | 83 | 7.0 | 15.0 | 0.00 | 0.00 | 0.00 | 70 | 1016.9 |
| 20260831114018 | 83 | 87 | 8.0 | 19.0 | 0.00 | 0.00 | 0.00 | 69 | 1017.0 |
| 20260831113034 | 83 | 94 | 9.0 | 18.0 | 0.00 | 0.00 | 0.00 | 67 | 1016.8 |
| 20260831112029 | 82 | 81 | 7.0 | 19.0 | 0.00 | 0.00 | 0.00 | 70 | 1017.0 |
| 20260831111024 | 82 | 83 | 7.0 | 17.0 | 0.00 | 0.00 | 0.00 | 73 | 1017.0 |
| 20260831110040 | 82 | 87 | 11.0 | 22.0 | 0.00 | 0.00 | 0.00 | 74 | 1017.1 |